Home   Weather   Hobart   Past weeks

Flag for Australia Past Weather in Hobart, Tasmania, Australia — Yesterday and Last 2 Weeks

Now
59 °F

Clear.


Feels Like: 57 °F
Forecast: 50 / 72 °F
Wind: 12 mph from Northwest

Location: Hobart Airport

Current Time: Dec 6, 2016 at 9:22:40 pm

Latest Report: Dec 6, 2016 at 9:00 pm


Visibility: 10 mi

Pressure: 29.83 "Hg

Humidity: 48%

Dew Point: 39 °F

Location of HobartLocation

Past Weather in Hobart — Graph

°F

Hobart Temperature Yesterday

Maximum temperature yesterday: 70 °F (at 12:00 am)
Minimum temperature yesterday: 55 °F (at 11:30 pm)
Average temperature yesterday: 65 °F

High & Low Weather Summary for the Past Weeks

 TemperatureHumidityPressure
High79 °F (Nov 21, 8:00 pm)100% (Dec 1, 12:00 am)30.09 "Hg (Dec 1, 12:00 am)
Low45 °F (Nov 24, 6:00 am)22% (Dec 2, 2:04 pm)29.33 "Hg (Dec 5, 4:00 am)
Average59 °F62%29.83 "Hg
* Reported Nov 21 8:00 pm — Dec 6 8:00 pm, Hobart, Weather by CustomWeather, © 2016

Note: Actual official high and low records may vary slightly from our data, if they occured in-between our weather recording intervals... More about our weather records

Advertising

Hobart Weather History for the Previous 24 Hours

Scroll right to see more
 ConditionsComfort  
Time TempWeatherWind HumidityBarometerVisibility
8:00 pm
Tue, Dec 6
61 °FScattered clouds.5 mph55%29.80 "HgN/A
7:30 pm61 °FScattered clouds.5 mph59%29.80 "HgN/A
7:00 pm59 °FScattered clouds.6 mph63%29.80 "HgN/A
6:30 pm59 °FScattered clouds.6 mph63%29.77 "HgN/A
6:00 pm59 °FScattered clouds.6 mph68%29.77 "HgN/A
5:30 pm61 °FScattered clouds.7 mph55%29.77 "HgN/A
5:00 pm59 °FScattered clouds.12 mph63%29.77 "HgN/A
4:30 pm59 °FScattered clouds.16 mph59%29.77 "HgN/A
4:00 pm61 °FScattered clouds.15 mph55%29.77 "HgN/A
3:30 pm61 °FScattered clouds.9 mph59%29.77 "HgN/A
3:00 pm61 °FPartly sunny.10 mph59%29.77 "HgN/A
2:30 pm64 °FScattered clouds.10 mph49%29.77 "HgN/A
2:00 pm61 °FPartly sunny.9 mph55%29.80 "HgN/A
1:30 pm63 °FPartly sunny.9 mph56%29.80 "HgN/A
1:00 pm59 °FScattered clouds.10 mph59%29.80 "HgN/A
12:30 pm59 °FScattered clouds.9 mph63%29.80 "HgN/A
12:00 pm61 °FScattered clouds.9 mph63%29.80 "HgN/A
11:30 am57 °FOvercast.8 mph63%29.83 "HgN/A
11:00 am57 °FOvercast.6 mph63%29.83 "HgN/A
10:30 am57 °FOvercast.7 mph63%29.83 "HgN/A
10:00 am55 °FOvercast.5 mph67%29.83 "HgN/A
9:30 am55 °FOvercast.5 mph67%29.83 "HgN/A
9:00 am54 °FOvercast.6 mph72%29.86 "HgN/A
8:30 am54 °FPartly sunny.6 mph72%29.86 "HgN/A
8:00 am54 °FScattered showers. Partly sunny.6 mph77%29.86 "HgN/A
7:00 am52 °FDrizzle. Partly sunny.8 mph88%29.86 "HgN/A
6:30 am54 °FSprinkles. Overcast.6 mph82%29.86 "HgN/A
6:00 am54 °FOvercast.7 mph82%29.83 "HgN/A
5:00 am54 °FOvercast.5 mph77%29.83 "HgN/A
4:00 am54 °FOvercast.5 mph77%29.83 "HgN/A
3:00 am54 °FOvercast.9 mph77%29.86 "HgN/A
2:30 am54 °FOvercast.8 mph82%29.86 "HgN/A
2:00 am55 °FMostly cloudy.8 mph72%29.86 "HgN/A
1:30 am55 °FPartly cloudy.7 mph63%29.86 "HgN/A
1:00 am55 °FOvercast.7 mph72%29.86 "HgN/A
12:30 am55 °FOvercast.6 mph63%29.86 "HgN/A
12:00 am54 °FClear.7 mph77%29.89 "HgN/A
11:30 pm
Mon, Dec 5
55 °FClear.7 mph59%29.89 "HgN/A
11:00 pm57 °FClear.7 mph51%29.89 "HgN/A
10:30 pm57 °FPassing clouds.7 mph51%29.89 "HgN/A
10:00 pm59 °FPassing clouds.7 mph51%29.89 "HgN/A
9:30 pm59 °FPassing clouds.10 mph51%29.86 "HgN/A
9:00 pm59 °FClear.8 mph45%29.86 "HgN/A
Weather by CustomWeather, © 2016

See weather overviewHow to use our weather pages